User: anonymous   Login
Location: La Fredeussais
(48.1780°N, 1.3980°W)
Time: 04:58:15
(UTC+00:00)
Language:

SEEDS - Orbit

View from above orbital plane
View from above orbital plane
View from above satellite
View from above satellite

Ground track
Ground track

The orbit data is extracted from the following two-line orbital elements,

1 32791U 08021J   21290.19557270  .00000731  00000-0  78195-4 0  9998
2 32791  97.5844 270.1922 0011576 283.0331  76.9596 14.91580223731002
Epoch (UTC): 17 October 2021 04:41:37
Eccentricity: 0.0011576
inclination: 97.5844°
perigee height: 585 km
apogee height: 601 km
right ascension of ascending node: 270.1922°
argument of perigee: 283.0331°
revolutions per day: 14.91580223
mean anomaly at epoch: 76.9596°
orbit number at epoch: 73100

The dashed part of the orbit path shows where the satellite is in the earth's shadow,  

DLR